Regional Weather Roundup
Issued by NWS

Home | Current Version | Previous Version | Text Only | Print | Product List | Glossary On
Versions: 1 2 3 4 5 6 7 8 9 10 11 12 13 14 15 16 17 18 19 20 21 22 23 24 25 26 27 28 29 30 31 32 33 34 35 36 37 38 39 40 41 42 43 44 45 46 47 48 49 50
000
ASUS45 KPSR 031310
RWRAZ

ARIZONA HOURLY REGIONAL WEATHER ROUNDUP
NATIONAL WEATHER SERVICE PHOENIX AZ
600 AM MST WED JUN 03 2015

NOTE: FAIR INDICATES FEW OR NO CLOUDS BELOW 12,000 FEET WITH NO
SIGNIFICANT WEATHER AND/OR OBSTRUCTIONS TO VISIBILITY.

AZZ001>003-036-031400-
NORTHWEST ARIZONA

CITY           SKY/WX    TMP DP  RH WIND       PRES   REMARKS
BULLHEAD CITY  CLEAR     73  27  17 E3        29.75R
KINGMAN        CLEAR     53  13  20 VRB3      29.88R
$$

AZZ004>008-015-016-018-031400-
NORTH CENTRAL ARIZONA

CITY           SKY/WX    TMP DP  RH WIND       PRES   REMARKS
GRAND CANYON   PTCLDY    34  21  59 CALM      30.10S
WILLIAMS       CLEAR     48  18  29 S7        30.16S
PRESCOTT       CLEAR     51  26  37 S7        30.02R
FLAGSTAFF      PTCLDY    36  23  59 CALM      30.13R
PAYSON         CLEAR     55  21  26 CALM      30.07R
PAGE           CLEAR     67  17  14 SW5       29.94R
$$

AZZ009>014-017-031400-
NORTHEAST ARIZONA

CITY           SKY/WX    TMP DP  RH WIND       PRES   REMARKS
WINSLOW        PTCLDY    48  26  42 CALM      30.05R
SAINT JOHNS    PTCLDY    53  26  35 CALM      30.09R
WINDOW ROCK    SUNNY     42  26  53 CALM      30.16R
SHOW LOW       CLEAR     55  19  24 S8        30.14R
$$

AZZ023-031400-
GREATER PHOENIX AREA

CITY           SKY/WX    TMP DP  RH WIND       PRES   REMARKS
PHOENIX        CLEAR     75  34  22 E7        29.81R
BUCKEYE        CLEAR     66  25  20 E6        29.82S
GLENDALE       CLEAR     73  34  23 CALM      29.82
LUKE AFB       CLEAR     74  30  19 S8        29.80R
DEER VALLEY    CLEAR     70  22  16 NE3       29.83R
SCOTTSDALE     CLEAR     73  32  22 CALM      29.85R
MESA-FALCON    CLEAR     73  27  17 VRB5      29.83
MESA-GATEWAY   CLEAR     66  30  26 SE5       29.85R
CHANDLER       CLEAR     68  36  30 NE5       29.83
$$

AZZ027-028-031400-
SOUTHWEST MARICOPA COUNTY AND PINAL COUNTY

CITY           SKY/WX    TMP DP  RH WIND       PRES   REMARKS
CASA GRANDE    CLEAR     66  28  24 CALM      29.84R
GILA BEND      FAIR      70  26  19 N2        29.80R
$$

AZZ503-504-507>509-031400-
SOUTHEAST ARIZONA

CITY           SKY/WX    TMP DP  RH WIND       PRES   REMARKS
TUCSON         CLEAR     70  24  17 SE12      29.95R
DAVIS-MONTHAN  CLEAR     69  25  19 S7        29.94R
RYAN FIELD     CLEAR     66  30  26 E9        29.93
NOGALES        CLEAR     57  26  30 SE3       30.02R
SIERRA VISTA   CLEAR     71  20  15 SW14      30.07R
DOUGLAS        CLEAR     61  24  24 SE6       30.05R
SAFFORD        CLEAR     65  27  23 VRB3      29.94R
$$

AZZ020-021-025-026-031-031400-
SOUTHWEST ARIZONA

CITY           SKY/WX    TMP DP  RH WIND       PRES   REMARKS
YUMA           CLEAR     73  27  18 N6        29.78R
$$

CAZ031-033-041-043-047-048-061-031400-
SOUTHERN CALIFORNIA

CITY           SKY/WX    TMP DP  RH WIND       PRES   REMARKS
DOWNTOWN L.A.  CLOUDY    63  55  75 VRB3      29.93R
L.A. AIRPORT   CLOUDY    61  56  83 E3        29.93S
SAN DIEGO      CLOUDY    62  54  74 SW7       29.98R
BURBANK        CLOUDY    61  56  83 SE6       29.93R
ONTARIO        CLOUDY    61  54  77 VRB5      29.93R
RIVERSIDE      CLOUDY    61  56  83 W5        29.94R
PALM SPRINGS   CLEAR     70  44  39 N5        29.78R
EL CENTRO NAS  PTCLDY    75  33  21 W26       29.79R
IMPERIAL       CLEAR     73  35  25 W16       29.76R
BLYTHE         CLEAR     70  39  32 CALM      29.76R
NEEDLES        CLEAR     77  30  17 W10       29.75R
$$

NVZ020-UTZ003-031400-
SOUTHERN NEVADA-UTAH

CITY           SKY/WX    TMP DP  RH WIND       PRES   REMARKS
LAS VEGAS      CLEAR     73  40  30 S20G28    29.74R
SALT LAKE CITY MOCLDY    60  51  72 E3        29.91R
$$

NMZ009-TXZ055-031400-
NEW MEXICO-WEST TEXAS

CITY           SKY/WX    TMP DP  RH WIND       PRES   REMARKS
ALBUQUERQUE    SUNNY     61  25  25 E6        30.09R
EL PASO        SUNNY     80  24  12 W12       29.97R
$$


........................KEY........................
SKY/WX - SKY CONDITION/WEATHER
TMP    - TEMPERATURE IN FAHRENHEIT
DP     - DEW POINT IN FAHRENHEIT
RH     - RELATIVE HUMIDITY IN PERCENT
WIND   - DIRECTION AND SPEED IN MILES PER HOUR (MPH)
VRB    - VARIABLE WIND DIRECTION
PRES   - MEAN SEA LEVEL PRESSURE IN INCHES OF MERCURY
         F - FALLING PRESSURE   R - RISING PRESSURE
         S - STEADY PRESSURE
VSB    - VISIBILITY IN MILES
HX     - HEAT INDEX IN FAHRENHEIT
WCI    - WIND CHILL INDEX IN FAHRENHEIT
TC     - TEMPERATURE IN CELSIUS WHICH IS ALSO KNOWN AS
         TEMPERATURE IN CENTIGRADE
AFB    - AIR FORCE BASE
         LUKE AFB IS LUKE AIR FORCE BASE
         DAVIS-MONTHAN IS DAVIS-MONTHAN AIR FORCE BASE
NAS    - NAVAL AIR STATION
         EL CENTRO NAS IS EL CENTRO NAVAL AIR STATION
N/A    - NOT AVAILABLE




USA.gov is the U.S. government's official web portal to all federal, state and local government web resources and services.